Find Starlink 4683

NORAD ID: 53712 Int'l Des: 2022-107 Owner: SPXS Country: US Constellation: starlink operational
LEOCIRCULAR

リアルタイム位置

3D地球を読み込み中...

Starlink 4683について

説明を読み込み中...

次回通過

Passes for default location (London). Set your location on the main map for personalized predictions.

高度履歴

Loading altitude history...

軌道要素

1 53712U 22107N 26126.33889782 -.00000905 00000-0 -38722-4 0 9997
2 53712 53.2202 349.8696 0001986 87.3881 272.7338 15.08848664203207
Epoch: May 6, 2026 • Age: 16 hours

現在のステータス

高度 554.4 km
速度 7.58 km/s
衛星直下点 -40.92°S, 85.13°E
打ち上げ日 Sep 5, 2022
運用期間 3.6 years
タイプ internet

技術仕様

分類 Payload
質量 305.00 kg
乾燥質量 290.00 kg
総質量 305.00 kg
長さ 0.20 m
直径 2.80 m
スパン 9.00 m
形状 Box + pan
製造者 SPXS
バスタイプ Starlink
フェーズステータス In Orbit
所有者/国 SPXS/US

Most Searched